Weather in Pichuga

Russia / Volgograd Oblast     48°59′01″N   44°42′51″E
temp.,
°C
wind,
m/s
gust,
m/s
humid.,
%
clouds,
%
prec.,
mm/h
press.,
hPa
HPBL,
m
25 february, thu
thu2500:00−15nw126487 0.0 1040254
03:00−15wsw236988 0.0 1039228
06:00−15sw347096 0.0 1038309
09:00−12ssw466795 0.0 1036385
12:00−9ssw6961100 0.0 1034571
15:00−7ssw71156100 0.0 1031672
18:00−8sw81289100 0.3 1028611
21:00−7sw81480100 0.4 1024529
26 february, fri
fri2600:00−5wsw91687100 0.4 1021447
03:00−2w91692100 0.5 1019366
06:00−1w71394100 0.2 1018308
09:00+1w71294100 0.3 1018288
12:00+3wnw71196100 0.1 1017267
15:00+3w61097100 0.3 1017247
18:00+3w71297100 0.2 1016255
21:00+3w71295100 0.2 1015259
27 february, sat
sat2700:00+3w81593100 0.1 1013364
03:00+3w81592100 0.3 1012374
06:00+3w71492100 0.1 1010372
09:00+3w71292100 0.1 1010405
12:00+3w71185100 0.0 1008574
15:00+3w51190100 0.1 1008409
18:00+2w4895100 0.0 1007205
21:00+1w51094100 0.1 1008344
28 february, sun
sun2800:000w599471 0.0 1007277
03:000w599470 0.0 1008288
06:000w599088 0.0 1008347
09:00+1w699291 0.1 1009501
12:00−2nw7106861 0.1 1010687
15:00−3nw797055 0.1 1011882
18:00−5nw6975100 0.0 1014776
21:00−6nnw7976100 0.0 1017696
1 march, mon
mon100:00−7nw6976100 0.0 1018648
03:00−9nnw697599 0.0 1020622
06:00−9nnw697672 0.0 1021580
09:00−6nnw577226 0.0 1024642
12:00−4nnw566389 0.0 1025771
15:00−3nnw576171 0.0 1025832
18:00−5nnw57683 0.0 1027576
21:00−6nnw57711 0.0 1029580